Current Weather Conditions: station 62134

sailwx.info

Wind from 200 at 17 knots

Wave height 1.2 meters (3 feet), 5 second period

Air temperature 11.9° C
Dewpoint 10.5° C

Last reported at 2019-Jun-18 06:00 UTC.
Time now 2019-Jun-18 07:30 UTC

Location: N 58°00' E 001°24'.
View on Google Maps.

See reports from other nearby stations

  
Tides and Currents Weather Stations Pressure Air Temp Water Temp Dewpoint Dewpoint Depression Visibility Wind Speed Wind Dir Waves Ship Positions
date/time (UTC)wind fromknots sea level pressurealtimeterstation pressurevisibilityair tempwater tempwave heightnotes
2019-Jun-18 06:00 200 17 11.9 1.2
2019-Jun-18 05:00 190 13 12.1 1.3
2019-Jun-18 04:00 190 15 12.0 1.4
2019-Jun-18 03:00 190 13 12.2 1.5
2019-Jun-18 02:00 200 19 12.3 1.6
2019-Jun-18 01:00 190 18 12.4 1.6
2019-Jun-18 00:00 190 20 12.6 1.6
2019-Jun-17 23:00 180 20 12.9 1.7
2019-Jun-17 22:00 180 21 12.9 1.6
2019-Jun-17 21:00 180 22 13.0 1.6
2019-Jun-17 20:00 180 21 12.8 1.6
2019-Jun-17 19:00 180 19 12.9 1.6
2019-Jun-17 18:00 180 21 13.0 1.6
2019-Jun-17 17:00 180 20 12.9 1.7
2019-Jun-17 16:00 180 20 12.6 1.6
2019-Jun-17 15:00 180 21 12.5 1.6
2019-Jun-17 14:00 180 20 12.5 1.6
2019-Jun-17 13:00 190 20 12.7 1.8
2019-Jun-17 12:00 180 20 12.6 1.9
2019-Jun-17 11:00 190 24 12.6 1.8
2019-Jun-17 10:00 180 24 12.7 1.6
2019-Jun-17 09:00 180 21 12.6 1.4
2019-Jun-17 08:00 180 22 12.5 1.4
2019-Jun-17 07:00 170 22 12.7 1.2
2019-Jun-17 06:00 170 24 12.8 1.2
2019-Jun-17 05:00 160 25 12.6 1.1
2019-Jun-17 04:00 140 17 12.2 1.1
2019-Jun-17 03:00 160 19 12.1 1.1
2019-Jun-17 02:00 140 20 12.2 1.2
2019-Jun-17 01:00 150 19 12.1 1.0
2019-Jun-17 00:00 150 18 12.2 1.0
2019-Jun-16 23:00 160 17 12.0 1.0
2019-Jun-16 22:00 160 17 12.0 1.0
2019-Jun-16 21:00 160 17 12.0 1.0
2019-Jun-16 20:00 160 18 12.0 1.0
2019-Jun-16 19:00 160 14 12.3 1.0
2019-Jun-16 18:00 170 17 12.3 1.0
2019-Jun-16 17:00 160 17 12.7
2019-Jun-16 16:00 160 18 12.4 1.0
2019-Jun-16 15:00 170 15 12.3 1.0
2019-Jun-16 14:00 170 17 12.2 1.1
2019-Jun-16 13:00 180 18 12.3 1.0
2019-Jun-16 12:00 180 15 12.0 0.9
2019-Jun-16 11:00 180 13 12.0 0.9
2019-Jun-16 10:00 180 13 11.8 0.8
2019-Jun-16 09:00 190 14 11.8 0.8
2019-Jun-16 08:00 180 14 11.8 0.8
2019-Jun-16 07:00 160 15 12.1 0.8